Riverside March, CA

8:42 PM PST on November 19, 2017 (GMT -0800)
March Air Reserve Base

Weather History for KRIV - January, 2014

Change the Weather History Date:

Saturday, January 18, 2014

  Actual Average Record
Temperature  
Mean Temperature 57 °F -  
Max Temperature 81 °F 64 °F 81 °F (2011)
Min Temperature 33 °F 40 °F 25 °F (2012)
Degree Days  
Heating Degree Days 8    
Growing Degree Days 7 (Base 50)    
Moisture  
Dew Point 10 °F    
Average Humidity 21    
Maximum Humidity 38    
Minimum Humidity 5    
Precipitation  
Precipitation 0.00 in - - ()
Sea Level Pressure  
Sea Level Pressure 30.08 in    
Wind  
Wind Speed 2 mph (North)    
Max Wind Speed 8 mph    
Max Gust Speed -    
Visibility 10 miles    
Events      
Averages and records for this station are not official NWS values.
T = Trace of Precipitation, MM = Missing Value Source: NWS Daily Summary

Daily Weather History Graph

Daily Weather History Graph

Search for Another Location

Airport or City:

Trip Planner

Search our weather history database for the weather conditions in past years. The results will help you decide how hot, cold, wet, or windy it might be!

Date:

Astronomy

Jan. 18, 2014 Rise Set
Actual Time 6:53 AM PST 5:06 PM PST
Civil Twilight 6:26 AM PST 5:33 PM PST
Nautical Twilight 5:55 AM PST 6:03 PM PST
Astronomical Twilight 5:25 AM PST 6:33 PM PST
Moon 7:42 PM PST (1/18) 8:03 AM PST (1/18)
Length of Visible Light 11h 06m
Length of Day
10h 13m
Waning Gibbous, 94% of the Moon is Illuminated
Jan 18
Waning Gibbous
Jan 23
Last Quarter
Jan 30
New
Feb 6
First Quarter
Feb 14
Full

Hourly Weather History & Observations

Time (PST) Temp. Dew Point Humidity Pressure Visibility Wind Dir Wind Speed Gust Speed Precip Events Conditions
12:58 AM 41.0 °F 10.8 °F 29% 30.08 in 10.0 mi NNE 1.2 mph - N/A   Clear
1:58 AM 38.8 °F 13.5 °F 35% 30.09 in 10.0 mi Calm Calm - N/A   Clear
2:58 AM 38.3 °F 11.7 °F 34% 30.08 in 10.0 mi NW 2.3 mph - N/A   Clear
3:58 AM 36.0 °F 9.7 °F 34% 30.07 in 10.0 mi Calm Calm - N/A   Clear
4:58 AM 34.0 °F 9.1 °F 36% 30.08 in 10.0 mi Calm Calm - N/A   Clear
5:58 AM 33.8 °F 9.9 °F 37% 30.09 in 10.0 mi Calm Calm - N/A   Scattered Clouds
6:58 AM 36.0 °F 12.2 °F 38% 30.11 in 10.0 mi East 2.3 mph - N/A   Clear
7:58 AM 43.0 °F 14.9 °F 32% 30.12 in 7.0 mi Calm Calm - N/A   Clear
8:58 AM 50.5 °F 16.3 °F 26% 30.14 in 10.0 mi Calm Calm - N/A   Clear
9:58 AM 60.3 °F 17.6 °F 19% 30.14 in 10.0 mi NNE 1.2 mph - N/A   Clear
10:58 AM 68.7 °F 11.1 °F 11% 30.11 in 10.0 mi ENE 1.2 mph - N/A   Clear
11:58 AM 75.4 °F 3.9 °F 6% 30.08 in 10.0 mi Calm Calm - N/A   Clear
12:58 PM 79.2 °F 7.0 °F 6% 30.04 in 10.0 mi Variable 1.2 mph - N/A   Clear
1:58 PM 81.1 °F 4.3 °F 5% 30.01 in 10.0 mi NNW 8.1 mph - N/A   Clear
2:58 PM 80.6 °F 7.9 °F 6% 30.02 in 10.0 mi NW 5.8 mph - N/A   Clear
3:58 PM 78.3 °F 8.2 °F 7% 30.03 in 10.0 mi NNW 8.1 mph - N/A   Clear
4:58 PM 73.0 °F 6.8 °F 8% 30.05 in 10.0 mi North 5.8 mph - N/A   Clear
5:58 PM 70.0 °F 6.8 °F 9% 30.07 in 10.0 mi North 5.8 mph - N/A   Clear
6:58 PM 65.8 °F 7.5 °F 10% 30.08 in 10.0 mi NNE 8.1 mph - N/A   Clear
7:58 PM 53.8 °F 9.7 °F 17% 30.09 in 10.0 mi NNE 6.9 mph - N/A   Clear
8:58 PM 54.9 °F 9.5 °F 16% 30.09 in 10.0 mi Calm Calm - N/A   Mostly Cloudy
9:58 PM 46.9 °F 8.2 °F 21% 30.10 in 10.0 mi NW 1.2 mph - N/A   Clear
10:58 PM 47.1 °F 14.5 °F 27% 30.09 in 10.0 mi WNW 3.5 mph - N/A   Clear
11:58 PM 45.1 °F 10.9 °F 25% 30.08 in 10.0 mi SSW 2.3 mph - N/A   Clear